When you browse on this site, cookies collect data to enhance your experience and personalize the content and advertising you see.
Visit our Privacy Policy to learn more. By continuing to use the site, you agree to this use of cookies and data.

Meteo pe oră la Dzhusaly

Astăzi, 20 Septembrie, Duminică

Timp Temperatura Precipitaţii Vânt Presiune Umiditate
00:00 +15°C° 0 mm 6 m/s 750 mmHg 27%
01:00 +14°C° 0 mm 6 m/s 749 mmHg 28%
02:00 +14°C° 0 mm 6 m/s 749 mmHg 30%
03:00 +14°C° 0 mm 6 m/s 749 mmHg 32%
04:00 +13°C° 0 mm 6 m/s 749 mmHg 33%
05:00 +14°C° 0 mm 6 m/s 748 mmHg 32%
06:00 +15°C° 0 mm 7 m/s 748 mmHg 31%
07:00 +16°C° 0 mm 7 m/s 748 mmHg 31%
08:00 +18°C° 0.1 mm 7 m/s 748 mmHg 26%
09:00 +22°C° 0.1 mm 7 m/s 748 mmHg 22%
10:00 +24°C° 0 mm 7 m/s 748 mmHg 18%
11:00 +26°C° 0 mm 8 m/s 748 mmHg 17%
12:00 +27°C° 0 mm 8 m/s 747 mmHg 17%
13:00 +28°C° 0 mm 8 m/s 747 mmHg 16%
14:00 +26°C° 0 mm 8 m/s 747 mmHg 19%
15:00 +24°C° 0 mm 8 m/s 748 mmHg 22%
16:00 +21°C° 0 mm 9 m/s 748 mmHg 28%
17:00 +18°C° 0 mm 7 m/s 748 mmHg 32%
18:00 +16°C° 0 mm 6 m/s 749 mmHg 36%
19:00 +14°C° 0 mm 5 m/s 749 mmHg 41%
20:00 +14°C° 0 mm 5 m/s 749 mmHg 46%
21:00 +13°C° 0 mm 5 m/s 750 mmHg 51%
22:00 +12°C° 0 mm 5 m/s 750 mmHg 57%
23:00 +12°C° 0 mm 5 m/s 750 mmHg 62%

Mâine, 21 Septembrie, Luni

Timp Temperatura Precipitaţii Vânt Presiune Umiditate
00:00 +10°C° 0 mm 5 m/s 750 mmHg 66%
01:00 +11°C° 0 mm 4 m/s 750 mmHg 71%
02:00 +11°C° 0 mm 4 m/s 750 mmHg 72%
03:00 +10°C° 0 mm 4 m/s 750 mmHg 74%
04:00 +10°C° 0 mm 4 m/s 750 mmHg 75%
05:00 +10°C° 0 mm 5 m/s 751 mmHg 69%
06:00 +11°C° 0 mm 6 m/s 751 mmHg 64%
07:00 +14°C° 0 mm 6 m/s 751 mmHg 59%
08:00 +15°C° 0 mm 7 m/s 751 mmHg 52%
09:00 +15°C° 0 mm 7 m/s 752 mmHg 45%
10:00 +16°C° 0 mm 7 m/s 752 mmHg 38%
11:00 +17°C° 0 mm 7 m/s 752 mmHg 34%
12:00 +18°C° 0 mm 8 m/s 752 mmHg 31%
13:00 +18°C° 0 mm 8 m/s 751 mmHg 28%
14:00 +18°C° 0 mm 8 m/s 752 mmHg 30%
15:00 +17°C° 0 mm 9 m/s 752 mmHg 33%
16:00 +17°C° 0 mm 9 m/s 753 mmHg 35%
17:00 +15°C° 0 mm 7 m/s 753 mmHg 36%
18:00 +14°C° 0 mm 6 m/s 754 mmHg 36%
19:00 +13°C° 0 mm 5 m/s 754 mmHg 37%
20:00 +12°C° 0 mm 5 m/s 755 mmHg 40%
21:00 +11°C° 0 mm 4 m/s 755 mmHg 42%
22:00 +10°C° 0 mm 4 m/s 756 mmHg 45%
23:00 +10°C° 0 mm 3 m/s 756 mmHg 47%

Poimâine, 22 Septembrie, Marţi

Timp Temperatura Precipitaţii Vânt Presiune Umiditate
00:00 +9°C° 0 mm 3 m/s 756 mmHg 50%
01:00 +8°C° 0 mm 2 m/s 756 mmHg 52%
02:00 +8°C° 0 mm 2 m/s 756 mmHg 52%
03:00 +8°C° 0 mm 2 m/s 756 mmHg 52%
04:00 +8°C° 0 mm 2 m/s 756 mmHg 53%
05:00 +9°C° 0 mm 2 m/s 757 mmHg 50%
06:00 +10°C° 0 mm 2 m/s 757 mmHg 47%
07:00 +11°C° 0 mm 3 m/s 757 mmHg 44%
08:00 +13°C° 0 mm 4 m/s 757 mmHg 39%
09:00 +15°C° 0 mm 4 m/s 757 mmHg 35%
10:00 +16°C° 0 mm 5 m/s 757 mmHg 30%
11:00 +17°C° 0 mm 5 m/s 757 mmHg 27%
12:00 +19°C° 0 mm 5 m/s 757 mmHg 25%
13:00 +20°C° 0 mm 6 m/s 756 mmHg 22%
14:00 +20°C° 0 mm 6 m/s 756 mmHg 22%
15:00 +20°C° 0 mm 6 m/s 756 mmHg 22%
16:00 +20°C° 0 mm 6 m/s 756 mmHg 22%
17:00 +17°C° 0 mm 5 m/s 756 mmHg 26%
18:00 +15°C° 0 mm 4 m/s 756 mmHg 30%
19:00 +14°C° 0 mm 4 m/s 756 mmHg 34%
20:00 +13°C° 0 mm 3 m/s 756 mmHg 37%
21:00 +12°C° 0 mm 3 m/s 756 mmHg 40%
22:00 +12°C° 0 mm 3 m/s 756 mmHg 43%
23:00 +11°C° 0 mm 3 m/s 756 mmHg 46%

23 Septembrie, Miercuri

Timp Temperatura Precipitaţii Vânt Presiune Umiditate
00:00 +10°C° 0 mm 3 m/s 756 mmHg 49%
01:00 +10°C° 0 mm 3 m/s 756 mmHg 52%
02:00 +9°C° 0 mm 3 m/s 756 mmHg 53%
03:00 +9°C° 0 mm 3 m/s 756 mmHg 53%
04:00 +9°C° 0 mm 3 m/s 756 mmHg 54%
05:00 +10°C° 0 mm 4 m/s 756 mmHg 51%
06:00 +11°C° 0 mm 4 m/s 756 mmHg 49%
07:00 +12°C° 0 mm 4 m/s 756 mmHg 47%
08:00 +14°C° 0 mm 5 m/s 756 mmHg 41%
09:00 +17°C° 0 mm 6 m/s 755 mmHg 36%
10:00 +20°C° 0 mm 6 m/s 755 mmHg 30%
11:00 +21°C° 0 mm 7 m/s 755 mmHg 28%
12:00 +22°C° 0 mm 8 m/s 754 mmHg 26%
13:00 +23°C° 0 mm 8 m/s 754 mmHg 23%
14:00 +23°C° 0 mm 9 m/s 754 mmHg 24%
15:00 +22°C° 0 mm 9 m/s 753 mmHg 25%
16:00 +22°C° 0 mm 9 m/s 753 mmHg 25%
17:00 +20°C° 0 mm 8 m/s 753 mmHg 30%
18:00 +17°C° 0 mm 7 m/s 753 mmHg 34%
19:00 +16°C° 0 mm 6 m/s 752 mmHg 38%
20:00 +15°C° 0 mm 6 m/s 752 mmHg 42%
21:00 +14°C° 0 mm 6 m/s 752 mmHg 47%
22:00 +13°C° 0 mm 6 m/s 752 mmHg 51%
23:00 +13°C° 0 mm 6 m/s 752 mmHg 53%

24 Septembrie, Joi

Timp Temperatura Precipitaţii Vânt Presiune Umiditate
00:00 +13°C° 0 mm 6 m/s 752 mmHg 55%
01:00 +12°C° 0 mm 7 m/s 752 mmHg 57%
02:00 +11°C° 0 mm 6 m/s 752 mmHg 61%
03:00 +12°C° 0 mm 5 m/s 752 mmHg 64%
04:00 +12°C° 0 mm 5 m/s 752 mmHg 67%
05:00 +13°C° 0 mm 4 m/s 753 mmHg 64%
06:00 +14°C° 0 mm 4 m/s 753 mmHg 60%
07:00 +14°C° 0 mm 3 m/s 753 mmHg 57%
08:00 +17°C° 0 mm 4 m/s 754 mmHg 51%
09:00 +19°C° 0 mm 4 m/s 754 mmHg 45%
10:00 +20°C° 0 mm 5 m/s 754 mmHg 39%
11:00 +21°C° 0 mm 5 m/s 754 mmHg 33%
12:00 +22°C° 0 mm 5 m/s 755 mmHg 27%
13:00 +23°C° 0 mm 5 m/s 755 mmHg 22%
14:00 +22°C° 0 mm 5 m/s 755 mmHg 21%
15:00 +22°C° 0 mm 6 m/s 755 mmHg 20%
16:00 +22°C° 0 mm 6 m/s 755 mmHg 20%
17:00 +20°C° 0 mm 5 m/s 756 mmHg 22%
18:00 +17°C° 0 mm 5 m/s 756 mmHg 25%
19:00 +15°C° 0 mm 5 m/s 756 mmHg 27%
20:00 +14°C° 0 mm 5 m/s 757 mmHg 29%
21:00 +13°C° 0 mm 5 m/s 757 mmHg 31%
22:00 +12°C° 0 mm 5 m/s 757 mmHg 33%
23:00 +12°C° 0 mm 5 m/s 757 mmHg 35%

25 Septembrie, Vineri

Timp Temperatura Precipitaţii Vânt Presiune Umiditate
00:00 +10°C° 0 mm 5 m/s 757 mmHg 36%
01:00 +10°C° 0 mm 5 m/s 758 mmHg 38%
02:00 +9°C° 0 mm 5 m/s 758 mmHg 41%
03:00 +9°C° 0 mm 5 m/s 758 mmHg 43%
04:00 +8°C° 0 mm 5 m/s 758 mmHg 46%
05:00 +8°C° 0 mm 5 m/s 758 mmHg 46%
06:00 +9°C° 0 mm 6 m/s 758 mmHg 46%
07:00 +9°C° 0 mm 6 m/s 759 mmHg 45%
08:00 +11°C° 0 mm 6 m/s 759 mmHg 41%
09:00 +12°C° 0 mm 7 m/s 759 mmHg 36%
10:00 +15°C° 0 mm 7 m/s 759 mmHg 31%
11:00 +16°C° 0 mm 7 m/s 758 mmHg 29%
12:00 +17°C° 0 mm 7 m/s 758 mmHg 26%
13:00 +18°C° 0 mm 7 m/s 758 mmHg 24%
14:00 +17°C° 0 mm 7 m/s 758 mmHg 25%
15:00 +17°C° 0 mm 7 m/s 757 mmHg 25%
16:00 +17°C° 0 mm 7 m/s 757 mmHg 26%
17:00 +16°C° 0 mm 7 m/s 757 mmHg 29%
18:00 +14°C° 0 mm 6 m/s 757 mmHg 32%
19:00 +13°C° 0 mm 5 m/s 757 mmHg 35%
20:00 +11°C° 0 mm 6 m/s 757 mmHg 37%
21:00 +11°C° 0 mm 6 m/s 757 mmHg 39%
22:00 +11°C° 0 mm 7 m/s 757 mmHg 41%
23:00 +10°C° 0 mm 7 m/s 757 mmHg 43%
Arată mai mult